Weather Roundup
Issued by NWS

Home | Current Version | Previous Version | Graphics & Text | Print | Product List | Glossary Off
Versions: 1 2 3 4 5 6 7 8 9 10 11 12 13 14 15 16 17 18 19 20 21 22 23 24 25 26 27 28 29 30 31 32 33 34 35 36 37 38 39 40 41 42 43 44 45 46 47 48 49 50

768
NZUS93 KARX 160310
HRRWXR

CURRENT HOURLY OBSERVATIONS ACROSS
MUCH OF THE UPPER MISSISSIPPI VALLEY
NATIONAL WEATHER SERVICE LA CROSSE WI
900 PM CST SUN JAN 15 2017


...SOUTHEAST MINNESOTA...


CITY           SKY/WX    TMP DP  RH WIND       PRES   REMARKS
ROCHESTER      CLOUDY    18  15  88 S8        30.23S WCI   8
ROCHESTER/MAYO FAIR      20  17  84 SE6       30.24S WCI  13
WINONA         CLOUDY    12  10  92 CALM      30.28S
AUSTIN         CLOUDY    16  12  86 SE3       30.23S
ALBERT LEA     CLOUDY    21  18  86 S5        30.22S WCI  15
DODGE CENTER   CLOUDY    16  12  86 CALM      30.21F
PRESTON        CLOUDY    18  15  86 S3        30.25S
OWATONNA       PTCLDY    19  16  86 SE8       30.22S WCI   9
FARIBAULT      CLOUDY    21  18  86 S6        30.22F WCI  14
$$

...ELSEWHERE IN MINNESOTA...


CITY           SKY/WX    TMP DP  RH WIND       PRES   REMARKS
MINNEAPOLIS    CLOUDY    22  16  78 SE5       30.22S WCI  16
INTNL FALLS    CLOUDY    21  13  71 SW6       30.00R WCI  13
DULUTH         CLOUDY    23  15  71 SW17G24   30.09S WCI   9
RED WING       CLOUDY    19  16  86 CALM      30.24S
REDWOOD FALLS  CLOUDY    22  16  78 S12       30.17F WCI  10
MANKATO        CLOUDY    22  18  85 S9        30.22S WCI  12
WORTHINGTON    CLOUDY    25  18  74 S3        30.16
FAIRMONT       CLOUDY    23  19  85 S7        30.20F WCI  15
$$

...SOUTHWEST WISCONSIN...


CITY           SKY/WX    TMP DP  RH WIND       PRES   REMARKS
PRAIRIE DU CHI CLOUDY    23  17  77 CALM      30.29S
BOSCOBEL       CLOUDY    21  16  81 CALM      30.30S
LONE ROCK      CLOUDY    18  14  84 CALM      30.30S
PLATTEVILLE    CLOUDY    27  22  80 E3        30.28S
FORT MC COY    CLOUDY    10   8  93 CALM      30.28S
CAMP DOUGLAS   CLOUDY    12   9  87 CALM      30.26F
MAUSTON-NEW LI CLOUDY    16  13  89 CALM      30.26S
VIROQUA        FAIR      24  14  64 S6        30.25S WCI  17
WIS DELLS      CLOUDY    20  12  71 CALM      30.27S
$$

...ELSEWHERE IN WISCONSIN...


CITY           SKY/WX    TMP DP  RH WIND       PRES   REMARKS
MILWAUKEE      CLOUDY    25  17  72 CALM      30.31S
MADISON        CLOUDY    22  16  78 S3        30.29S
GREEN BAY      CLOUDY    18  11  74 SW3       30.29R
EAU CLAIRE     CLOUDY    16  11  80 S5        30.23F WCI   9
BLACK RVR FLS  FAIR       4  -1  83 CALM      30.26S
MEDFORD        CLEAR     14   8  78 S7        30.21S WCI   4
WAUSAU         CLOUDY    15   9  76 SE5       30.23S WCI   8
WIS RAPIDS     CLOUDY     9   7  92 CALM      30.27S
MARSHFIELD     CLOUDY    12   8  84 SW5       30.22F FOG     WCI   4
RICE LAKE      CLOUDY     7   5  89 SE3       30.22F
$$

...NORTHEAST IOWA...


CITY           SKY/WX    TMP DP  RH WIND       PRES   REMARKS
WATERLOO       CLOUDY    27  20  75 E5        30.25F WCI  22
DUBUQUE        PTCLDY    27  18  69 E3        30.27F
DECORAH        CLOUDY    21  16  79 SE3       30.25S
MASON CITY     CLOUDY    17  14  88 SE3       30.24F
CHARLES CITY   CLOUDY    23  19  86 SE7       30.25S WCI  15
OELWEIN        CLOUDY    27  23  86 SE7       30.26S WCI  19
$$

...ELSEWHERE IN IOWA...


CITY           SKY/WX    TMP DP  RH WIND       PRES   REMARKS
DES MOINES     FRZ RAIN  31  27  85 SE8       30.22F FOG     WCI  23
IOWA CITY      CLOUDY    32  19  58 SE5       30.28F WCI  27
FORT DODGE     CLOUDY    28  21  74 E7        30.20F WCI  21
MARSHALLTOWN   CLOUDY    30  20  66 E6        30.22F WCI  24
CEDAR RAPIDS   CLOUDY    30  16  56 E6        30.25S WCI  24
$$

...NORTHERN ILLINOIS...


CITY           SKY/WX    TMP DP  RH WIND       PRES   REMARKS
CHICAGO-OHARE  CLOUDY    31  23  72 CALM      30.32S
CHICAGO-MIDWAY CLOUDY    34  25  69 SE3       30.33S
MOLINE         CLOUDY    32  24  72 E7        30.27F WCI  26
ROCKFORD       MOCLDY    28  20  71 CALM      30.32F
PEORIA         CLOUDY    33  30  88 E5        30.29F FOG     WCI  29
$$

NOTE: "FAIR" INDICATES FEW OR NO CLOUDS BELOW 12,000 FEET WITH NO
SIGNIFICANT WEATHER AND/OR OBSTRUCTIONS TO VISIBILITY. WIND
SPEEDS ARE IN MILES-PER-HOUR.




USA.gov is the U.S. government's official web portal to all federal, state and local government web resources and services.